Regional Weather Roundup
Issued by NWS

Home | Current Version | Previous Version | Graphics & Text | Print | Product List | Glossary On
Versions: 1 2 3 4 5 6 7 8 9 10 11 12 13 14 15 16 17 18 19 20 21 22 23 24 25 26 27 28 29 30 31 32 33 34 35 36 37 38 39 40 41 42 43 44 45 46 47 48 49 50
000
ASUS43 KLOT 220603
RWRIL

ILLINOIS REGIONAL WEATHER ROUNDUP
NATIONAL WEATHER SERVICE CHICAGO/ROMEOVILLE IL
1200 AM CST WED NOV 22 2017

NOTE: "FAIR" INDICATES FEW OR NO CLOUDS BELOW 12,000 FEET WITH NO
SIGNIFICANT WEATHER AND/OR OBSTRUCTIONS TO VISIBILITY.

* THESE STATIONS ARE NOT UNDER NWS QUALITY CONTROL. THEY ALSO MAY NOT
  REPORT WEATHER SUCH AS PRECIPITATION OR FOG.

ILZ001-002-007-009-015-016-024-220700-
NORTHWEST ILLINOIS

CITY           SKY/WX    TMP DP  RH WIND       PRES   REMARKS
MOLINE         CLEAR     24  16  71 NW8       30.30R WCI  15
6HR MIN TEMP:  24; 6HR MAX TEMP:  32;

STERLING*      CLEAR     25  17  72 NW9       30.28R WCI  15
SAVANNA*       CLEAR     25  15  65 NW7       30.28S WCI  17
$$

ILZ003-004-008-010-011-017-018-220700-
NORTH CENTRAL ILLINOIS

CITY           SKY/WX    TMP DP  RH WIND       PRES   REMARKS
ROCKFORD       CLEAR     23  15  71 NW8       30.27R WCI  14
6HR MIN TEMP:  22; 6HR MAX TEMP:  30;

FREEPORT*      CLEAR     21  14  74 W6        30.28R WCI  14
ROCHELLE*      CLEAR     24  17  77 NW8       30.25S WCI  14
DE KALB*       CLEAR     24  16  71 NW3       30.23S
PERU*          CLEAR     25  17  73 NW9       30.27S WCI  15
$$

ILZ005-006-012>014-019>023-220700-
NORTHEAST ILLINOIS

CITY           SKY/WX    TMP DP  RH WIND       PRES   REMARKS
CHICAGO-OHARE  CLEAR     27  15  61 NW9       30.21R WCI  18
6HR MIN TEMP:  27; 6HR MAX TEMP:  33;

CHICAGO-MIDWAY NOT AVBL
AURORA         CLEAR     22  17  81 NW7       30.24R WCI  13
6HR MIN TEMP:  21; 6HR MAX TEMP:  30;

LANSING*       CLEAR     28  17  65 NW8       30.22R WCI  19
JOLIET*        CLEAR     28  17  64 NW5       30.24R WCI  23
WAUKEGAN       CLEAR     24  15  68 NW6       30.21R WCI  17
6HR MIN TEMP:  24; 6HR MAX TEMP:  30;

DUPAGE AIRPORT CLEAR     24  16  71 NW9       30.22R WCI  14
6HR MIN TEMP:  24; 6HR MAX TEMP:  31;

KANKAKEE*      CLEAR     27  17  64 N7        30.23R WCI  20
WHEELING       CLEAR     26  16  65 NW9       30.24R WCI  17
6HR MIN TEMP:  26; 6HR MAX TEMP:  33;

MORRIS*        CLEAR     26  18  73 NW7       30.24R WCI  18
ROMEOVILLE*    CLEAR     26  17  70 N9        30.23S WCI  16
NORTHERLY ISL    N/A     29  16  58 W7          N/A  WCI  22
$$

LMZ740>746-220700-
SOUTHERN LAKE MICHIGAN

STATION/POSITION SKY/WX   TEMP    WIND        PRES    VSBY  WAVE
                          AIR SEA DIR/SP/G                  HT/PER
                          (F)     (DEG/KT/KT) (MB)    (MI)  (FT/S)
SOUTHERN BUOY              32 47  340/ 17/ 21 1021.8          6/ 7
HARRISON CRIB              29     300/ 21/ 22   N/A
BURNHAM HARBOR             29     290/  7/ 17   N/A
CALUMET HARBOR             28     300/ 10/ 18 1022.3R
BURNS HARBOR               33     330/ 18/ 22 1022.4R
MICHIGAN CITY              33     320/ 22/ 25   N/A
$$

ILZ025>027-034>036-040-047-049-050-058-095>099-220700-
WEST-CENTRAL ILLINOIS

CITY           SKY/WX    TMP DP  RH WIND       PRES   REMARKS
QUINCY         CLEAR     25  17  72 N10       30.31R WCI  15
GALESBURG*     CLEAR     22  18  87 NW6       30.30R WCI  14
MACOMB*        CLEAR     24  19  82 NW9       30.32R WCI  14
JACKSONVILLE*  CLEAR     25  19  80 NW8       30.30R WCI  16
PITTSFIELD*    CLEAR     27  19  74 NW5       30.32R WCI  21
$$

ILZ028>032-037-038-041>044-048-051>054-059>061-220700-
CENTRAL ILLINOIS

CITY           SKY/WX    TMP DP  RH WIND       PRES   REMARKS
PONTIAC        CLEAR     26  23  87 NW8       30.25S WCI  18
BLOOMINGTON    CLEAR     25  19  78 NW9       30.25R WCI  15
DECATUR        CLEAR     27  20  75 NW9       30.26R WCI  18
PEORIA         CLEAR     26  17  68 NW3       30.28R
6HR MIN TEMP:  26; 6HR MAX TEMP:  32;

LACON*         CLEAR     24  18  78 NW3       30.26S
LINCOLN*       CLEAR     27  22  80 NW3       30.27S
SPRINGFIELD    CLEAR     28  20  71 NW8       30.29R WCI  20
6HR MIN TEMP:  28; 6HR MAX TEMP:  35;

TAYLORVILLE    CLEAR     28  20  71 NW10      30.27S WCI  18
6HR MIN TEMP:  28; 6HR MAX TEMP:  34;

$$

ILZ033-039-045-046-055>057-062-063-220700-
EAST-CENTRAL ILLINOIS

CITY           SKY/WX    TMP DP  RH WIND       PRES   REMARKS
CHAMPAIGN      CLEAR     27  21  78 NW13      30.23R WCI  16
DANVILLE*      CLEAR     28  22  79 NW12      30.19R WCI  17
RANTOUL*       CLEAR     29  24  82 NW9       30.23R WCI  21
MATTOON        CLEAR     27  22  81 NW12      30.23R WCI  17
PARIS*         CLEAR     26  24  91 NW7       30.24R WCI  19
$$

ILZ079-100>102-220700-
SOUTHWEST ILLINOIS

CITY           SKY/WX    TMP DP  RH WIND       PRES   REMARKS
ALTON          CLEAR     29  21  72 NW6       30.29S WCI  23
BELLEVILLE     CLEAR     31  19  61 NW10      30.28R WCI  22
CAHOKIA*       CLEAR     31  18  58 N10       30.30R WCI  22
SPARTA*        CLEAR     31  22  68 N8        30.30R WCI  24
$$

ILZ064>066-069>071-074>076-080>082-084>086-088>090-092>094-220700-
SOUTH-CENTRAL ILLINOIS

CITY           SKY/WX    TMP DP  RH WIND       PRES   REMARKS
CARBONDALE     CLEAR     32  22  66 N10       30.28R WCI  24
6HR MIN TEMP:  32; 6HR MAX TEMP:  51;

CAIRO*         CLEAR     36  26  65 N14G21    30.25R WCI  27
EFFINGHAM*     CLEAR     30  24  76 NW9       30.27R WCI  22
MARION         CLEAR     34  23  65 N7        30.28R WCI  27
MT. VERNON     CLEAR     31  23  72 CALM      30.28R
CENTRALIA*     CLEAR     31  24  73 NW9       30.27R WCI  23
SALEM*         CLEAR     31  23  71 NW8       30.27R WCI  24
METROPOLIS*    CLEAR     37  23  57 N18       30.25R WCI  27
$$

ILZ067-068-072-073-078-083-087-091-220700-
SOUTHEAST ILLINOIS

CITY           SKY/WX    TMP DP  RH WIND       PRES   REMARKS
LAWRENCEVILLE  CLEAR     31  23  72 NW12      30.25R WCI  22
FLORA*         CLEAR     32  23  70 NW7       30.27R WCI  26
FAIRFIELD*     CLEAR     31  23  71 CALM      30.26R
HARRISBURG*    CLEAR     32  24  73 N6        30.27R WCI  26
ROBINSON*      CLEAR     29  24  79 NW9       30.25R WCI  21
CARMI*         CLEAR     31  24  73 N8        30.25R WCI  24
$$

ABBREVIATIONS USED IN REMARKS
   TC - TEMPERATURE IN CELSIUS
  WCI - WIND CHILL INDEX
   HX - HEAT INDEX
  VSB - VISIBILITY
$$





USA.gov is the U.S. government's official web portal to all federal, state and local government web resources and services.